Voltar ao catálogo

LEMUR 2 AMANDA-SVANTE

AtivoCiênciaSSO
NORAD 48269·PAYLOAD·🇺🇸 United States

Lançado Apr 29, 2021 de Guiana Space Centre

Loading…

Próximas Passagens (próximas 24 horas)

TLE

AtualizadoSource: Space-Track

Época: Sep 13, 2026, 23:14 UTC

1 48269U 21034B   26256.96841389  .00035001  00000-0  88918-3 0  9994
2 48269  97.5690 337.9105 0000928 264.8189  95.2950 15.39562168294698

Acompanhe LEMUR 2 AMANDA-SVANTE em tempo real com AllMySat

Download on the App Store